www.pogodaiklimat.ru

Погода и климат >> Архив погоды >> Австрия >> Гумпольдскирхен


ПОГОДА в Гумпольдскирхене

  • Прогноз погоды в Гумпольдскирхене
  • Монитор погоды в Гумпольдскирхене

АРХИВ ПОГОДЫ в Гумпольдскирхене

Время (UTC), дата Ветер
(напр.,м/с)
 
Видим.   Явления Облачность Т
(С)
Тd
(С)
f
(%)
Тe
(С)
Тes
(С)
Комфортность P
(гПа)
Po
(гПа)
Тmin
(С)
Tmax
(С)
R
(мм)
R24
(мм)
S
(см)
19 18.08 ЮЗ 2 н/о н/о +26.8 +15.1 49 +30 +30 душно 1011.9 987.0
20 18.08 ЮЗ 2 н/о н/о +24.8 +15.8 57 +28 +28 жарко 1012.4 987.3
21 18.08 ЮЗ 2 н/о н/о +23.5 +16.8 66 +27 +27 душно 1012.5 987.3
22 18.08 ЮЗ 2 н/о н/о +22.6 +17.5 73 +28 +28 душно 1012.4 987.1
23 18.08 З 1 н/о н/о +21.1 +17.4 79 +25 +25 комфорт 1012.3 986.9
00 19.08 штиль 0 н/о н/о +20.2 +17.5 84 +23 +23 комфорт 1012.2 986.7 0.0
01 19.08 штиль 0 н/о н/о +18.8 +16.9 89 +20 +20 1012.2 986.6
02 19.08 З 3 н/о н/о +19.4 +17.4 88 +22 +22 комфорт 1012.0 986.5
03 19.08 ЮЗ 2 н/о н/о +19.8 +17.4 86 +23 +23 комфорт 1012.4 986.9
04 19.08 ЮВ 1 н/о н/о +17.5 +16.8 96 +19 +19 1013.8 988.0
05 19.08 З 4 н/о н/о +23.4 +15.0 59 +27 +27 душно 1014.0 988.7
06 19.08 З 11
{19}
н/о н/о +25.1 +15.5 55 +28 +28 жарко 1014.6 989.5 +17.1 +29.8 0.0
07 19.08 СЗ 9
{19}
н/о н/о +25.5 +16.0 56 +29 +29 душно 1015.3 990.2
08 19.08 СЗ 7
{16}
н/о н/о +26.2 +14.6 49 +29 +29 жарко 1015.9 990.8
09 19.08 СЗ 5
{19}
н/о н/о +27.3 +14.7 46 +30 +30 душно 1016.4 991.4
10 19.08 З 6 н/о н/о +28.0 +14.6 44 +30 +30 жарко 1016.9 991.9
11 19.08 СЗ 3 н/о н/о +28.9 +14.8 42 +31 +31 жарко 1016.8 991.9
12 19.08 СЗ 2
{19}
н/о н/о +29.9 +14.3 39 +32 +32 жарко 1016.8 992.0
13 19.08 С 4 н/о н/о +30.4 +13.7 36 +32 +32 жарко 1016.7 991.9
14 19.08 С 3 н/о н/о +30.3 +14.0 37 +32 +32 жарко 1016.3 991.5
15 19.08 С 3 н/о н/о +29.9 +13.7 37 +31 +31 жарко 1016.4 991.6
16 19.08 СВ 3 н/о н/о +29.5 +14.9 41 +32 +32 душно 1016.2 991.4
17 19.08 С 3 н/о н/о +28.8 +14.6 42 +31 +31 жарко 1016.8 991.9
18 19.08 З 3
{19}
н/о н/о +27.7 +14.7 45 +30 +30 жарко 1017.6 992.6 +24.9 +30.8 0.0
19 19.08 З 7
{15}
н/о в посл. час осадки н/о +24.1 +16.1 61 +27 +27 жарко 1018.4 993.1 0.0
20 19.08 З 7 н/о в посл. час осадки н/о +22.1 +16.8 72 +26 +26 душно 1019.2 993.7 0.0
21 19.08 СЗ 1
{15}
н/о {ливн. осадки} н/о +23.2 +15.9 64 +28 +28 душно 1019.2 993.8 0.0
22 19.08 В 1 н/о н/о +21.6 +17.2 76 +26 +26 душно 1019.6 994.1
23 19.08 ЮЗ 1 н/о н/о +20.7 +17.2 80 +25 +25 комфорт 1019.7 994.1
00 20.08 ЮВ 1
{15}
н/о {ливн. осадки} н/о +20.8 +16.4 76 +25 +25 комфорт 1019.4 993.8 0.0
01 20.08 В 1 н/о н/о +20.8 +16.2 75 +25 +25 комфорт 1019.4 993.8
02 20.08 штиль 0 н/о н/о +20.1 +16.4 79 +23 +23 комфорт 1019.9 994.2
03 20.08 ЮВ 1 н/о н/о +20.2 +16.8 81 +24 +24 комфорт 1020.1 994.4
04 20.08 ЮВ 1 н/о н/о +20.3 +16.9 81 +24 +24 комфорт 1020.2 994.5
05 20.08 В 1 н/о в посл. час осадки н/о +20.4 +17.4 83 +25 +25 комфорт 1020.8 995.1 0.1
06 20.08 штиль 0
{15}
н/о осадки н/о +20.9 +18.3 85 +25 +25 комфорт 1020.9 995.3 +19.8 +27.7 0.2
07 20.08 ЮЗ 1 н/о в посл. час осадки н/о +22.6 +17.7 74 +28 +28 душно 1020.8 995.3 0.0
08 20.08 штиль 0 н/о н/о +23.8 +16.9 65 +27 +27 жарко 1020.6 995.2
09 20.08 СВ 3 н/о {осадки} н/о +26.0 +18.1 62 +31 +31 очень
душно
1020.3 995.1 0.0
10 20.08 СВ 3 н/о н/о +26.8 +17.2 56 +31 +31 душно 1020.0 994.9
11 20.08 В 2 н/о н/о +28.2 +16.4 49 +32 +32 душно 1019.6 994.6
12 20.08 СВ 2 н/о {осадки} н/о +29.6 +17.9 49 +34 +34 очень
душно
1019.0 994.1 0.0
13 20.08 В 1 н/о н/о +29.0 +17.7 51 +33 +33 очень
душно
1018.5 993.6
14 20.08 В 3 н/о н/о +29.6 +18.4 51 +34 +34 очень
душно
1017.8 993.0
15 20.08 В 2 н/о н/о +29.9 +18.1 49 +34 +34 очень
душно
1017.3 992.5
16 20.08 В 3 н/о н/о +30.2 +18.6 50 +35 +35 очень
душно
1016.9 992.2
17 20.08 ЮВ 2 н/о н/о +29.2 +18.7 53 +34 +34 очень
душно
1016.6 991.8
18 20.08 штиль 0 н/о н/о +27.6 +18.6 58 +33 +33 очень
душно
1016.5 991.6 +20.5 +30.6 0.0
19 20.08 Ю 1 н/о н/о +26.5 +18.3 61 +31 +31 душно 1017.1 992.0
20 20.08 З 1 н/о н/о +24.9 +18.3 67 +29 +29 душно 1017.1 991.9
21 20.08 ЮЗ 1 н/о н/о +24.2 +18.4 70 +29 +29 душно 1017.0 991.8
22 20.08 З 7 н/о н/о +25.1 +18.8 68 +30 +30 душно 1017.9 992.7
23 20.08 З 12
{18}
н/о н/о +23.3 +17.1 68 +28 +28 душно 1018.8 993.4
00 21.08 З 14
{20}
н/о н/о +22.4 +17.0 72 +27 +27 душно 1019.0 993.5
01 21.08 З 15
{23}
н/о н/о +19.8 +15.5 76 +21 +21 комфорт 1020.0 994.3
02 21.08 З 18
{28}
н/о н/о +18.2 +14.9 81 +17 +17 1021.0 995.1 0.0
03 21.08 СЗ 6
{28}
н/о н/о +17.7 +14.3 80 +17 +17 1023.8 997.8 0.0
04 21.08 СЗ 10
{17}
н/о н/о +17.6 +13.7 78 +16 +16 1024.1 998.1
05 21.08 СЗ 5
{18}
н/о н/о +17.4 +13.1 76 +17 +17 1025.8 999.7
06 21.08 З 7
{28}
н/о н/о +17.4 +13.2 76 +16 +16 1026.5 1000.4 +17.3 +28.1 0.0
07 21.08 З 4
{15}
н/о н/о +17.7 +12.9 73 +17 +17 1027.9 1001.8
08 21.08 З 3 н/о н/о +18.0 +12.5 70 +18 +18 1028.0 1001.9
09 21.08 СЗ 3
{15}
н/о н/о +18.5 +12.5 68 +19 +19 1028.1 1002.0
10 21.08 СЗ 2 н/о н/о +19.0 +13.0 68 +21 +21 комфорт 1028.3 1002.3 0.0
11 21.08 СЗ 3 н/о осадки н/о +17.2 +14.2 83 +17 +17 1028.2 1002.0 0.5
12 21.08 СЗ 3
{15}
н/о {осадки} н/о +18.8 +13.8 73 +20 +20 1027.9 1001.9 0.5
13 21.08 СЗ 3 н/о н/о +20.0 +13.2 65 +22 +22 комфорт 1027.9 1002.0
14 21.08 СЗ 5 н/о н/о +19.7 +12.9 65 +21 +21 комфорт 1027.6 1001.6 0.0
15 21.08 СЗ 4 н/о н/о +20.5 +12.7 61 +23 +23 комфорт 1027.5 1001.6 0.0
16 21.08 СЗ 4 н/о н/о +20.5 +12.5 60 +23 +23 комфорт 1027.7 1001.8
17 21.08 СЗ 2 н/о н/о +19.6 +12.4 63 +22 +22 комфорт 1027.6 1001.6 0.0
18 21.08 СЗ 2
{15}
н/о н/о +19.3 +12.6 65 +21 +21 комфорт 1027.6 1001.6 +17.1 +20.8 0.5
19 21.08 СЗ 1 н/о н/о +18.6 +12.5 68 +20 +20 1028.0 1001.9
20 21.08 СЗ 2 н/о н/о +18.1 +12.4 69 +19 +19 1028.0 1001.9
21 21.08 СЗ 2 н/о н/о +17.6 +12.5 72 +18 +18 1028.4 1002.2
22 21.08 СЗ 2 н/о н/о +17.7 +12.6 72 +18 +18 1028.5 1002.3
23 21.08 СЗ 2 н/о н/о +17.4 +12.4 72 +18 +18 1028.2 1002.0
00 22.08 СЗ 2 н/о н/о +17.1 +12.5 74 +17 +17 1027.6 1001.4
01 22.08 СЗ 3 н/о н/о +16.6 +12.3 76 +16 +16 1027.3 1001.1
02 22.08 СЗ 3 н/о н/о +16.7 +12.3 75 +16 +16 1027.3 1001.1
03 22.08 СЗ 3 н/о н/о +16.4 +12.5 78 +16 +16 1027.0 1000.8
04 22.08 СЗ 2 н/о н/о +16.1 +12.5 79 +16 +16 1027.1 1000.8
05 22.08 СЗ 2 н/о н/о +16.1 +12.6 80 +16 +16 1027.1 1000.8
06 22.08 СЗ 2 н/о н/о +16.2 +12.7 80 +16 +16 1027.2 1000.9 +15.8 +19.4
07 22.08 С 3 н/о н/о +16.6 +12.8 78 +16 +16 1026.9 1000.7
08 22.08 С 1 н/о н/о +17.5 +13.2 76 +19 +19 1026.8 1000.7
09 22.08 СВ 2 н/о н/о +18.7 +13.6 72 +20 +20 1026.5 1000.5
10 22.08 СВ 3 н/о н/о +20.6 +13.9 65 +23 +23 комфорт 1026.0 1000.2
11 22.08 СВ 3 н/о н/о +21.3 +13.8 62 +24 +24 комфорт 1025.8 1000.0
12 22.08 СВ 3 н/о н/о +23.1 +14.6 59 +27 +27 душно 1025.6 1000.0
13 22.08 С 3 н/о н/о +23.2 +14.1 57 +27 +27 душно 1025.2 999.6
14 22.08 СВ 2 н/о н/о +24.4 +14.7 55 +27 +27 жарко 1024.7 999.2 0.0
15 22.08 С 2 н/о н/о +24.2 +14.6 55 +27 +27 жарко 1024.6 999.1 0.0
16 22.08 СВ 2 н/о н/о +23.9 +15.0 57 +27 +27 жарко 1024.3 998.8
17 22.08 СВ 2 н/о н/о +23.4 +15.1 60 +28 +28 душно 1024.3 998.8
18 22.08 С 2 н/о н/о +22.7 +15.5 64 +27 +27 душно 1024.5 998.9 +16.2 +24.7 0.0
19 22.08 СЗ 2 н/о н/о +22.0 +15.6 67 +26 +26 душно 1025.6 999.9
20 22.08 СЗ 2 н/о н/о +21.8 +15.4 67 +25 +25 комфорт 1025.9 1000.2
21 22.08 СЗ 2 н/о н/о +21.1 +15.2 69 +24 +24 комфорт 1026.0 1000.2
22 22.08 С 2 н/о н/о +20.9 +15.1 69 +25 +25 комфорт 1025.9 1000.1
23 22.08 С 1 н/о н/о +20.8 +15.0 69 +25 +25 комфорт 1026.0 1000.2
00 23.08 С 1 н/о н/о +20.7 +15.2 71 +25 +25 комфорт 1026.1 1000.3
01 23.08 штиль 0 н/о н/о +18.5 +15.1 81 +19 +19 1025.9 999.9
02 23.08 штиль 0 н/о н/о +18.0 +15.1 83 +18 +18 1026.2 1000.2
03 23.08 СЗ 1 н/о н/о +18.4 +15.0 81 +20 +20 1026.3 1000.3
04 23.08 С 1 н/о н/о +18.7 +14.4 76 +21 +21 комфорт 1026.3 1000.3
05 23.08 Ю 1 н/о н/о +18.6 +14.8 79 +20 +20 1026.9 1000.9
06 23.08 Ю 1 н/о н/о +19.6 +15.0 75 +23 +23 комфорт 1026.8 1000.9 +17.9 +22.9
07 23.08 СВ 2 н/о н/о +20.0 +14.2 69 +23 +23 комфорт 1027.1 1001.2
08 23.08 СВ 3 н/о н/о +21.5 +14.4 64 +24 +24 комфорт 1027.1 1001.3
09 23.08 С 3 н/о н/о +22.4 +13.3 56 +25 +25 комфорт 1027.0 1001.3
10 23.08 С 3 н/о н/о +23.6 +13.9 54 +26 +26 жарко 1026.6 1001.0
11 23.08 СВ 3 н/о н/о +24.9 +14.1 51 +27 +27 жарко 1025.8 1000.3
12 23.08 В 3 н/о н/о +25.8 +14.3 49 +28 +28 жарко 1025.4 1000.0
13 23.08 В 1 н/о н/о +26.5 +14.6 48 +29 +29 жарко 1025.0 999.7
14 23.08 В 1 н/о н/о +27.6 +15.1 46 +30 +30 жарко 1024.0 998.8
15 23.08 СВ 2 н/о н/о +27.7 +15.6 48 +31 +31 душно 1023.5 998.4
16 23.08 В 2 н/о н/о +27.2 +15.7 49 +30 +30 душно 1023.1 997.9 0.0
17 23.08 В 2 н/о н/о +26.7 +16.0 52 +30 +30 душно 1022.8 997.6
18 23.08 СВ 1 н/о н/о +24.6 +16.4 60 +28 +28 душно 1023.3 997.9 +19.3 +28.4 0.0
19 23.08 СЗ 2 н/о н/о +21.9 +16.0 69 +26 +26 душно 1024.1 998.5
20 23.08 СЗ 2 н/о н/о +21.4 +16.2 72 +25 +25 комфорт 1024.3 998.6
21 23.08 З 2 н/о н/о +20.4 +16.4 78 +24 +24 комфорт 1023.9 998.1
22 23.08 штиль 0 н/о н/о +20.0 +16.6 81 +22 +22 комфорт 1023.7 997.9
23 23.08 СВ 1 н/о н/о +19.4 +16.7 84 +22 +22 комфорт 1023.7 997.9
00 24.08 СВ 1 н/о н/о +18.3 +16.2 88 +20 +20 1023.6 997.7
01 24.08 ЮЗ 1 н/о н/о +17.4 +15.9 91 +18 +18 1023.8 997.8
02 24.08 штиль 0 н/о н/о +16.9 +15.8 93 +17 +17 1023.8 997.7
04 24.08 штиль 0 н/о н/о +16.9 +15.9 94 +17 +17 1023.6 997.5
05 24.08 штиль 0 н/о н/о +17.3 +16.3 94 +17 +17 1023.5 997.5
06 24.08 Ю 1 н/о н/о +18.7 +16.4 86 +21 +21 комфорт 1023.6 997.7 +16.5 +25.3
07 24.08 штиль 0 н/о н/о +22.5 +17.7 74 +28 +28 душно 1023.3 997.7
08 24.08 В 2 н/о н/о +24.3 +17.8 67 +28 +28 душно 1023.0 997.6
09 24.08 В 1 н/о н/о +25.3 +18.0 64 +30 +30 душно 1022.8 997.5
10 24.08 ЮВ 2 н/о н/о +27.8 +18.4 57 +33 +33 очень
душно
1022.1 997.0
11 24.08 ЮВ 3 н/о н/о +29.6 +18.2 50 +34 +34 очень
душно
1021.4 996.5
12 24.08 ЮВ 4 н/о н/о +29.5 +17.8 49 +34 +34 очень
душно
1020.9 996.0
13 24.08 В 3 н/о н/о +31.2 +17.6 44 +35 +35 очень
душно
1020.3 995.5
14 24.08 ЮВ 4 н/о н/о +29.2 +16.4 46 +33 +33 очень
душно
1020.2 995.3
15 24.08 В 2 н/о н/о +28.6 +17.0 49 +32 +32 душно 1020.1 995.1
16 24.08 ЮЗ 1 н/о н/о +26.6 +18.5 61 +31 +31 душно 1020.3 995.2
17 24.08 ЮЗ 2 н/о н/о +25.8 +17.1 59 +30 +30 душно 1020.3 995.1
18 24.08 Ю 3 н/о н/о +23.5 +16.7 66 +27 +27 душно 1020.5 995.1 +18.6 +31.4
19 24.08 Ю 2 н/о н/о +22.3 +16.1 68 +26 +26 жарко 1020.7 995.2
20 24.08 Ю 6 н/о н/о +20.9 +17.4 80 +25 +25 комфорт 1022.7 997.0
21 24.08 ЮВ 3 н/о осадки н/о +20.2 +16.6 80 +23 +23 комфорт 1022.6 996.9 0.2
22 24.08 ЮВ 3 н/о осадки н/о +18.5 +17.4 93 +19 +19 1021.7 995.8 2
23 24.08 З 2 н/о ливневой дождь {осадки} н/о +18.2 +17.4 95 +19 +19 1020.8 994.9 0.7
00 25.08 З 3 н/о осадки {ливн. осадки} н/о +18.1 +17.7 98 +18 +18 1021.3 995.4 3
01 25.08 ЮВ 2 н/о осадки н/о +18.3 +17.9 98 +19 +19 1022.2 996.3 0.6
02 25.08 ЮЗ 2 н/о осадки н/о +18.1 +17.8 98 +19 +19 1022.1 996.2 2
03 25.08 СВ 2 н/о в посл. час осадки н/о +18.3 +18.3 100 +19 +19 1021.8 995.9 4
04 25.08 В 2 н/о осадки н/о +18.3 +18.2 99 +19 +19 1021.6 995.7 1
05 25.08 ЮВ 2 н/о н/о +18.3 +18.3 100 +19 +19 1022.2 996.3 0.0
06 25.08 З 3 н/о {ливн. осадки} н/о +18.4 +18.3 99 +19 +19 1022.4 996.5 +18.1 +23.8 8
07 25.08 ЮЗ 1 н/о н/о +19.1 +18.5 96 +22 +22 комфорт 1022.3 996.5
08 25.08 Ю 2 н/о в посл. час осадки н/о +19.5 +18.3 93 +22 +22 комфорт 1022.4 996.6 0.0
09 25.08 ЮЗ 3 н/о {осадки} н/о +20.1 +18.1 88 +24 +24 комфорт 1021.9 996.2 0.0
10 25.08 Ю 1 н/о н/о +22.8 +18.7 78 +29 +29 очень
душно
1021.7 996.2
11 25.08 ЮВ 4 н/о н/о +24.0 +18.4 71 +28 +28 душно 1021.9 996.5
12 25.08 В 1 н/о {осадки} н/о +24.8 +19.2 71 +30 +30 душно 1021.8 996.5 0.0
13 25.08 В 3 н/о н/о +26.2 +18.6 63 +31 +31 очень
душно
1020.8 995.6
14 25.08 СВ 1 н/о н/о +26.3 +18.9 64 +31 +31 душно 1020.2 995.1
15 25.08 В 3 н/о н/о +26.4 +18.2 61 +31 +31 душно 1019.7 994.6
16 25.08 В 2 н/о н/о +26.6 +18.9 63 +32 +32 очень
душно
1019.7 994.6
17 25.08 В 2 н/о н/о +25.4 +19.7 71 +31 +31 очень
душно
1019.9 994.7
18 25.08 СВ 1 н/о н/о +24.0 +19.3 75 +29 +29 душно 1020.6 995.3 +18.3 +27.1 0.0

 

Местоположение метеостанции Гумпольдскирхен (Австрия): широта 48.03 долгота 16.28 высота над уровнем моря 233 м.

В архиве по умолчанию представлена погода в Гумпольдскирхене за последнюю неделю. Архивные данные за месяц целиком и за предыдущие месяцы, начиная с января 2011 года, Вы можете получить, выбрав интересующий диапазон дат из раскрывающегося списка и нажав кнопку "Ввод!".


*Определитесь, кто Вы:
робот инопланетянин человек

Внимание! Время в таблицах - всемирное. Для получения местного времени необходимо прибавить поправку, которая равна 1 ч.

Смотрите также архив погоды в соседних городах и на ближайших метеорологических станциях:

Погода в Вене электроподстанция (Австрия) (15 км)
Погода в Зайберсдорфе (Австрия) (17 км)
Погода в Мариябрунн (Австрия) (19 км)
Погода в Вене город (Австрия) (20 км)
Погода в Винер-Нойштадт (Австрия) (23 км)
Погода в Вене аэропорт (Австрия) (24 км)
Погода в Вене (Австрия) (25 км)
Погода в Вене Донауфельд (Австрия) (27 км)
Погода в Айзенштадте (Австрия) (27 км)
Погода в Грос-Энцерсдорфе (Австрия) (29 км)

Пояснения к столбцам:

Ветер - указаны скорость ветра в м/с - средняя за 10 мин, порывы в срок и между сроками (в фигурных скобках) и направление, откуда дует ветер: С - северный, СВ - северо-восточный, В - восточный, ЮВ - юго-восточный, Ю - южный, ЮЗ - юго-западный, З - западный, СЗ - северо-западный.
Видимость - горизонтальная дальность видимости в метрах или километрах. При видимости от 1 до 10 км при отсутствии осадков обычно наблюдается дымка, при ухудшении видимости до 1 км и менее - туман. В сухую погоду видимость может ухудшаться дымом, пылью или мглою.
Явления - указаны атмосферные явления, наблюдавшиеся в срок или в последний час перед сроком; фигурными скобками обозначены явления, наблюдавшиеся между сроками (за 1-3 часа до срока); квадратными скобками обозначены град или гололедные отложения с указанием их диаметра в мм.
Облачность - указаны через наклонную черту общая и нижняя облачность в баллах и высота нижней границы облаков в метрах; квадратными скобками обозначены формы облаков: Ci - перистые, Cs - перисто-слоистые, Cc - перисто-кучевые, Ac - высококучевые, As - высокослоистые, Sc - слоисто-кучевые, Ns - слоисто-дождевые, Cu - кучевые, Cb - кучево-дождевые. Подробнее классификацию облаков см. в Атласе облаков (PDF).
T - Температура воздуха - температура, измеренная на высоте 2 м над землей.
Td - Температура точки росы - температура, при понижении до которой содержащийся в воздухе водяной пар достигнет насыщения.
f - Относительная влажность воздуха - влажноcть воздуха, измеренная на высоте 2 м над землей.
Te - Эффективная температура - температура, которую ощущает одетый по сезону человек в тени. Характеристика душности погоды. При расчете учитывается влияние влажности воздуха и скорости ветра на теплоощущения человека.
Tes - Эффективная температура на солнце - температура, которую ощущает человек, с поправкой на солнечный нагрев. Характеристика знойности погоды. Зависит от высоты солнца над горизонтом, облачности и скорости ветра. Ночью, в пасмурную погоду, а также при ветре 12 м/с и более поправка равна нулю.
P - Атмосферное давление - приведенное к уровню моря атмосферное давление.
Po - Атмосферное давление - измеренное на уровне метеостанции атмосферное давление.
Tmin - Минимальная температура - минимум температуры воздуха на высоте 2 м над землей.
Tmax - Максимальная температура - максимум температуры воздуха на высоте 2 м над землей.
R - Количество осадков - Количество выпавших осадков за период времени, мм. При наведении курсора мыши на число - период времени, за который выпало указанное количество осадков.
R24 - Количество осадков - Количество выпавших осадков за 24 часа, мм.
S - Снежный покров - Высота снежного покрова, см. При наведении курсора мыши на число - состояние снежного покрова и степень покрытия местности в баллах.